Dewpoint
9 10 11 13 14 13 12 12 14 14 13 12 12 12 12 12 12 11 11 11 11 11 11 11 12 12 12 13 13 13 13 13 14 15 16 16 16 16 17 17 17 18 18 18 19 19 20 20 20 20 20 20 21 21 21 21 22 23 24 25 26 28 29 31 32 31 30 29 29
10 11 12 14 14 13 12 12 13 13 13 12 12 12 12 12 12 11 11 11 12 12 12 12 12 12 12 13 14 14 13 13 14 15 15 16 16 16 16 17 17 17 18 18 19 19 20 20 20 20 20 20 20 20 20 21 21 23 24 25 27 29 30 31 30 29 29 28 29
9 10 11 11 11 11 11 11 11 11 12 12 12 12 12 12 11 11 11 11 12 12 12 12 12 12 13 13 13 13 14 14 14 14 15 15 16 16 16 16 17 17 18 18 18 19 20 20 20 20 20 20 20 20 20 21 23 24 25 25 27 29 29 29 28 28 28 28 29
10 10 10 10 10 10 10 11 11 11 12 12 11 11 11 11 11 11 11 12 12 12 12 12 12 12 13 13 13 13 14 16 15 15 15 15 16 16 16 17 17 17 17 18 18 19 19 20 20 20 20 20 20 21 21 22 23 24 25 26 27 28 28 27 27 28 28 29 29
10 10 10 10 10 10 11 11 11 11 11 11 11 11 11 11 11 11 11 12 12 12 12 12 13 13 14 14 14 14 14 15 16 15 14 14 15 16 16 17 17 17 18 18 18 18 19 20 20 20 20 21 21 22 22 23 23 24 25 25 26 26 26 26 27 28 28 29 30
10 10 10 10 10 11 11 11 11 12 12 12 11 11 11 11 11 11 12 12 12 12 13 15 15 15 15 14 14 14 14 14 14 14 14 14 15 16 16 16 16 17 17 18 18 18 18 18 19 20 20 21 23 24 24 24 24 24 25 25 25 25 25 26 26 28 29 29 29
10 10 10 10 10 11 11 11 12 12 12 12 12 11 11 11 12 12 12 12 12 13 14 16 15 14 14 13 14 14 14 14 14 13 13 13 14 15 16 16 16 16 17 18 18 18 18 18 19 20 21 22 22 23 24 24 24 24 25 25 25 25 25 27 27 28 29 29 29
11 11 11 11 11 11 11 12 12 12 12 12 12 12 12 12 12 13 13 12 13 13 14 15 13 13 13 13 14 14 14 14 14 14 13 14 14 15 15 16 16 16 17 18 18 18 18 18 19 20 21 22 22 22 23 24 25 25 25 25 25 25 26 28 29 29 28 28 28
11 11 11 11 11 11 12 12 12 12 12 12 12 12 12 13 14 14 13 13 14 15 15 14 14 14 14 14 15 15 15 15 15 14 14 14 14 14 15 16 16 17 17 18 18 18 18 18 19 20 20 21 22 22 22 24 25 25 25 25 25 25 26 27 27 28 27 27 27
11 11 11 11 11 12 13 12 12 13 13 12 12 12 13 16 16 14 13 14 15 15 15 14 14 15 15 15 15 16 16 16 16 15 15 15 15 15 15 15 16 17 17 18 17 17 17 18 19 19 20 20 21 22 22 23 25 25 25 25 25 25 26 26 26 26 27 27 28
12 12 12 12 12 13 13 12 13 13 13 13 13 13 13 15 14 14 15 15 15 15 15 15 15 15 15 15 16 16 16 16 16 16 16 16 16 15 15 16 16 16 17 17 17 17 17 18 18 19 20 20 21 22 22 23 23 25 25 25 26 26 26 25 25 26 26 27 28
12 13 13 13 13 13 13 13 13 13 13 13 13 13 13 13 13 15 15 15 15 15 15 15 16 16 16 16 16 16 17 17 17 17 16 16 16 16 16 16 16 16 16 16 16 16 17 17 18 19 19 20 20 21 22 23 24 24 25 25 26 26 26 25 25 25 26 27 28
13 13 13 13 13 13 13 13 13 13 13 13 13 13 14 14 14 15 15 14 15 15 15 15 16 16 16 16 16 17 17 17 17 17 17 16 16 16 16 16 16 16 16 16 16 16 17 17 18 19 19 19 20 20 21 22 23 24 24 25 25 26 26 26 26 26 27 28 29
13 13 14 14 14 14 14 14 14 14 14 14 14 14 14 14 14 15 15 14 14 14 15 15 16 16 16 16 17 17 17 18 18 18 18 17 16 16 16 16 16 16 16 16 16 16 17 18 19 19 19 19 19 20 20 21 22 23 24 25 26 26 26 26 27 27 28 29 30
13 13 14 14 14 14 14 14 14 14 14 14 14 14 14 14 15 15 15 14 14 15 15 15 16 16 17 17 17 17 17 17 18 18 18 18 17 16 16 15 16 16 16 16 16 17 19 20 20 20 20 20 20 20 20 21 23 25 26 27 27 28 27 27 27 28 29 29 30
13 13 13 14 14 14 14 15 15 14 14 14 14 14 14 14 15 15 15 15 15 15 16 16 16 16 16 17 17 16 17 17 17 18 19 19 18 17 16 15 15 16 16 17 18 19 20 20 20 21 21 20 20 20 21 23 25 27 29 29 29 29 28 28 28 29 29 31 31
13 13 13 14 14 14 15 15 15 15 15 14 14 14 15 15 15 16 16 16 16 16 16 16 16 16 16 17 17 17 17 17 18 19 20 20 19 17 16 15 15 16 16 17 18 18 19 20 20 21 21 21 21 22 23 25 28 30 31 31 31 30 29 29 29 29 30 31 31
13 13 13 14 14 15 15 16 15 15 15 15 15 15 16 16 16 16 16 17 17 16 16 16 16 16 16 16 17 18 19 19 20 20 21 20 19 18 17 16 16 16 17 17 17 18 19 20 20 20 21 22 23 24 26 29 30 31 32 31 31 30 29 29 30 30 31 31 31
13 14 14 14 15 15 16 16 16 16 16 16 16 16 16 17 16 17 17 17 17 17 16 16 16 16 16 16 16 17 19 20 21 21 21 20 20 18 18 17 17 17 17 17 17 18 18 19 20 20 21 22 24 25 28 30 31 30 30 31 31 31 30 30 30 30 30 30 30
14 14 14 15 15 16 16 17 16 16 16 16 17 18 18 17 17 18 18 19 18 17 17 17 16 16 16 15 16 17 19 20 20 21 20 20 19 18 18 18 18 18 17 17 17 18 18 19 20 20 21 23 25 28 29 31 30 29 29 29 30 30 30 29 28 28 29 30 30
14 15 15 15 16 16 16 16 17 17 18 18 19 19 19 18 18 19 19 19 18 18 18 17 17 17 16 16 17 18 19 20 20 19 19 18 18 18 18 19 18 18 18 17 17 17 18 19 20 21 23 25 28 29 30 30 29 29 28 28 28 27 26 25 25 27 29 30 29
15 15 15 16 16 16 16 17 17 17 18 18 19 19 19 18 19 19 19 18 18 18 17 17 16 17 17 17 18 18 18 19 18 18 18 18 18 18 19 19 18 18 17 17 17 17 18 19 21 23 25 28 29 30 30 29 29 28 27 26 26 25 24 25 26 28 29 29 29
15 16 16 16 16 17 18 17 17 17 18 18 18 18 18 18 19 19 18 18 18 18 17 17 17 17 18 18 18 18 17 17 16 17 17 17 18 18 19 19 18 18 17 17 17 18 19 20 23 25 28 29 30 30 29 29 28 27 26 26 25 25 26 27 28 29 29 29 29
16 16 16 16 17 17 18 18 18 17 17 17 18 18 18 18 18 18 18 18 18 17 17 18 18 18 18 18 18 17 16 16 16 16 16 17 17 18 18 19 19 18 17 17 19 21 23 24 25 27 29 30 30 29 28 27 27 26 26 26 27 27 28 29 29 29 29 29 30
16 16 16 16 17 18 18 18 18 17 17 17 17 17 17 17 18 18 17 17 17 17 17 17 18 18 17 16 16 15 15 15 16 16 16 16 17 18 18 18 18 17 17 17 23 26 28 28 28 29 29 30 29 28 26 25 26 27 27 28 28 28 29 29 28 28 29 29 31
16 16 16 16 17 17 18 18 17 16 16 16 16 16 16 17 17 17 16 16 16 16 17 17 17 17 16 13 13 13 13 13 15 16 16 17 17 17 18 18 17 16 17 21 26 28 29 29 30 31 31 31 29 26 25 25 26 27 28 29 29 28 28 28 28 28 29 30 31
16 16 16 16 16 16 17 16 16 15 15 15 15 16 16 16 16 16 15 15 15 15 16 16 15 15 15 12 12 12 13 13 15 16 17 17 17 17 17 17 17 18 20 24 27 29 30 30 32 33 33 31 28 26 24 24 25 26 28 29 28 28 28 28 28 29 29 30 30
16 16 16 16 16 16 16 15 15 15 14 14 14 14 14 16 16 15 14 14 14 14 15 14 14 13 13 11 12 12 13 13 14 14 15 16 16 16 16 17 17 19 22 26 28 29 31 32 33 34 34 33 29 26 25 24 24 25 27 28 28 28 28 28 29 29 29 29 29
16 16 16 15 16 16 15 14 14 13 13 13 13 13 13 14 14 14 13 13 13 14 14 14 13 12 11 11 11 12 13 13 14 14 14 15 16 16 16 17 17 20 23 27 29 30 31 32 34 35 35 33 28 25 24 23 24 25 26 27 27 27 27 28 29 29 28 27 27
16 16 15 15 15 15 14 14 13 12 12 12 11 11 12 13 14 14 13 13 13 14 14 14 12 11 11 11 11 11 12 13 14 14 15 16 16 16 16 17 17 19 23 27 29 31 32 33 35 35 34 30 26 24 23 23 24 25 26 26 26 26 27 28 29 28 26 26 26
16 15 15 15 15 15 14 13 13 12 11 11 11 11 12 12 13 13 13 14 14 15 15 13 12 11 11 11 11 11 11 12 13 14 15 16 16 16 16 16 16 19 23 28 29 31 33 34 35 33 31 28 25 23 22 23 24 25 25 25 25 26 27 29 28 26 25 25 26
16 15 15 15 15 14 14 13 12 12 11 11 11 11 11 12 13 13 13 14 14 13 13 12 11 11 10 10 11 11 12 13 14 15 16 16 16 15 15 16 16 19 23 28 30 32 34 35 33 30 28 27 24 22 21 23 24 25 25 25 25 25 26 28 27 26 25 25 25
15 15 15 14 14 14 13 13 12 12 11 10 11 11 11 12 14 14 13 13 13 12 11 11 10 10 10 11 11 11 12 14 15 16 16 16 16 16 16 16 17 20 25 29 30 32 34 33 29 27 26 26 23 21 20 22 23 24 24 24 24 24 25 25 26 27 27 25 25
15 15 14 14 14 14 13 12 12 11 11 11 11 11 12 13 13 13 13 13 13 11 11 10 10 11 11 11 12 13 14 16 16 16 16 16 16 16 16 16 17 22 27 29 31 33 33 30 27 26 26 25 22 20 20 21 23 24 24 24 24 24 24 25 25 26 27 27 26
14 14 14 14 13 13 13 12 12 12 11 11 12 12 12 13 13 13 13 14 13 11 10 10 11 11 12 13 13 14 15 16 16 16 16 16 16 16 16 17 18 22 27 29 32 33 32 28 25 25 25 24 20 19 19 21 22 23 24 23 23 24 24 24 25 25 27 29 27
14 14 13 13 13 13 13 13 12 12 12 13 13 13 13 13 13 13 13 14 13 11 10 10 11 13 14 14 15 15 15 13 14 15 17 18 17 16 16 17 18 21 25 29 32 33 31 27 25 25 24 21 19 18 19 20 21 23 23 23 23 23 23 23 23 24 25 28 29
13 13 13 13 13 13 13 13 13 13 14 14 14 14 14 13 13 13 13 14 11 11 11 11 13 14 15 16 15 14 13 11 12 14 17 18 17 17 16 17 16 19 23 29 32 33 32 29 26 25 23 19 17 17 18 19 20 22 22 22 22 22 22 22 22 23 24 26 30
13 13 13 13 13 13 14 14 14 15 15 15 15 14 14 13 12 12 13 13 11 11 11 12 14 15 16 16 15 12 11 10 11 14 16 17 17 17 16 16 16 17 21 28 30 32 33 31 28 25 22 19 17 16 17 18 20 20 21 22 22 22 22 22 21 22 23 25 29
13 13 13 13 13 14 14 15 15 15 15 15 15 14 13 12 12 12 12 13 11 11 12 14 16 17 17 17 13 10 9 9 11 14 16 17 17 18 18 15 15 17 21 26 28 30 32 33 30 27 24 20 17 16 16 16 18 19 20 20 21 21 21 21 21 21 22 23 28
12 13 13 13 14 14 15 15 15 15 15 14 13 12 12 11 12 12 12 11 11 11 13 16 17 18 18 17 12 9 8 9 10 13 16 18 18 19 19 16 15 17 20 24 25 27 29 32 31 29 25 20 17 16 16 16 16 17 18 19 20 20 20 20 20 20 21 21 25
13 13 14 14 15 15 16 16 15 14 14 13 12 11 11 12 11 11 10 10 10 11 14 17 19 19 18 15 11 9 9 10 11 13 16 18 17 18 18 16 16 16 18 20 23 25 27 29 30 30 27 23 19 16 16 14 15 16 16 17 18 19 19 19 20 20 20 20 21